CZ-6A DEB

Satellite information

Favourite Embed

Satellite Type and Status

DEBRISIN ORBIT

Key statistics

Satellite CZ-6A DEB at a glance.

Uptime

1081

Days in orbit

Revolutions

≈ 14.0

Per day

Orbit

SSO

Sun Synchronous Orbit

Inclination

98.9

Latest

Satellite identification and parameters

Extended collection of information and parameters for CZ-6A DEB.

Object identification

Identified? True

Debris? True

Object name: CZ-6A DEB

International designator: 2022-151AEV

Object number (NORAD): 56621

Object ID (CCSDS): 56621

Country: PEOPLES REPUBLIC OF CHINA (PRC)

Current information (Y/N): Y

RCS size: SMALL

Orbital parameters

Period: 103.118 minutes

Inclination: 98.9031 deg

SMA: 7284.24 km

Apoapsis: 990.703 km

Periapsis: 821.507 km

RAAN: 277.6211 deg

Eccentricy: 0.01161383

Argument of periapsis: 355.0369 deg

Mean anomaly: 4.9634 deg

Mean motion: 13.96453194 rev/day

Mean motion (dot): 0.0000168 rev/day2

B* drag term: 0.0011789601 1/REarth

Two-line elements (TLE)

Creation date: Oct. 27, 2025, 2:46 a.m.

Reference frame: TEME

Reference center: EARTH

Epoch: Oct. 26, 2025, 9:50 a.m. UTC

TLE line 0: 0 CZ-6A DEB

TLE line 1: 1 56621U 22151AEV 25299.40974926 .00001680 00000-0 11790-2 0 9994

TLE line 2: 2 56621 98.9031 277.6211 0116138 355.0369 4.9634 13.96453194132646

Live tracking on map

Real-time ground track for satellite CZ-6A DEB.

In-orbit conjunctions

A list of the most updated potential collisions computed for object CZ-6A DEB.

Target Orbit TCA Probability of collision Miss distance Type
METEOR 2-8 DEB LEO 2025-02-26 02:10:56 0.0001291997 106.0 (m) DEBRIS
SL-8 R/B LEO 2024-08-09 12:28:37 0.0002038124 703.0 (m) ROCKET BODY

Associated space launch

Chinese satellite reported for atmospheric/ocean/environmental/spatial parameter research purposes, details TBD.

CZ-6A DEB was lifted into orbit during the mission ‘Long March 6A | Yunhai 3’, on board a Long March 6A space rocket.

The launch took place on Nov. 11, 2022, 10:52 p.m. from Launch Complex 9A.

For more information about the launch, click the button.

Launch to space Long March 6A | Yunhai 3
Long March 6A | Yunhai 3

Agency: N/A

Status: Launch Successful

Launch date: Nov. 11, 2022, 10:52 p.m. UTC

Rocket: Long March 6A

Launch pad: Launch Complex 9A

Location: Taiyuan Satellite Launch Center, People's Republic of China

...

Latest news about this satellite

There are no fresh news available about this satellite. Check back as we update our databases every day.


Newsletter sign-up

Weekly statistics, charts and insights to help you stay on top of the space industry.